Theta_e
352 352 353 353 353 353 352 350 350 353 351 350 351 350 349 349 345 342 338 338 339 337 337 335 334 334 334 334 334 334 333 332 329 331 331 332 332 331 331 331 331 331 331
352 352 352 352 352 353 353 351 351 352 353 351 350 348 348 347 345 344 341 338 338 339 334 334 337 337 334 335 336 335 334 333 333 331 331 331 331 332 332 331 329 330 330
351 353 353 353 353 352 352 352 351 354 355 351 349 347 347 346 346 345 344 339 336 337 337 333 336 338 337 336 336 336 334 334 333 333 333 333 332 330 330 331 330 330 330
352 353 353 354 354 354 353 352 352 352 356 356 351 349 347 346 347 346 345 343 337 337 336 335 334 337 337 336 336 336 335 334 335 334 333 332 332 331 331 331 330 329 329
353 354 354 354 354 354 354 353 352 352 353 355 355 350 348 348 348 347 346 346 342 339 338 338 334 335 337 338 337 334 335 336 335 334 334 332 332 332 331 331 330 330 330
354 355 355 355 356 356 356 356 355 353 353 353 353 355 352 350 349 348 347 346 345 343 341 340 339 336 337 339 338 338 338 336 335 334 334 332 332 332 330 330 329 329 326
356 356 356 356 356 357 358 358 357 355 354 354 353 352 352 352 351 351 350 347 346 344 342 341 339 339 336 337 337 338 338 337 330 333 334 333 332 331 330 330 329 328 328
356 357 358 357 357 357 357 359 359 357 355 354 353 353 353 353 353 351 351 348 346 345 344 342 342 340 337 336 338 338 338 337 330 331 333 332 331 331 330 330 329 329 328
356 357 358 359 359 358 358 358 359 359 357 356 354 353 354 353 352 352 351 346 344 345 344 343 343 342 339 334 338 338 337 334 332 332 332 331 331 329 328 326 326 326 324
356 357 358 359 360 360 360 359 359 359 359 356 355 356 356 354 356 356 352 345 344 345 346 345 344 341 339 338 340 337 335 334 332 331 330 330 329 328 324 320 319 321 321
354 356 357 359 359 359 360 360 360 360 359 357 357 356 355 355 357 356 350 346 346 346 345 345 341 339 339 338 334 334 334 334 332 331 329 326 322 319 318 316 314 313 317
351 352 357 357 359 359 359 360 360 360 359 357 358 354 354 357 357 354 350 349 349 347 345 343 338 337 335 336 335 335 335 332 331 328 325 319 318 320 317 315 313 312 310
348 350 351 355 357 359 359 360 361 360 359 358 355 351 347 353 355 353 350 349 347 344 338 334 334 337 337 335 336 335 333 331 328 324 320 318 319 316 315 314 314 311 308
345 347 350 351 355 358 359 360 361 360 358 355 351 348 344 347 349 349 348 345 340 337 335 337 338 335 333 332 332 331 330 327 325 320 318 318 319 318 316 313 311 307 307
348 348 350 352 355 358 353 356 361 358 357 350 348 345 342 342 346 346 345 342 338 336 337 336 334 332 330 328 328 327 326 324 321 319 318 318 319 318 315 311 307 306 306
352 347 347 344 336 332 337 337 343 346 346 346 346 336 336 339 343 344 342 341 339 337 335 333 332 332 328 326 325 323 322 322 321 319 319 319 319 316 312 308 306 305 304
338 336 336 336 337 338 335 335 334 334 333 333 335 337 340 343 343 342 340 340 339 335 333 333 332 330 325 324 323 323 323 322 321 320 320 321 316 310 306 306 304 304 304
338 341 341 343 341 335 333 332 333 333 338 336 341 342 342 341 341 340 339 336 329 332 334 330 326 325 325 326 325 322 323 323 322 321 317 309 307 306 306 304 303 304 303
337 337 339 338 336 335 334 333 334 335 333 326 334 339 340 341 339 337 334 331 328 328 326 326 326 326 324 321 322 323 322 318 313 310 309 306 306 305 304 303 304 303 303
340 338 336 333 330 331 331 330 328 327 326 327 329 330 335 335 330 329 328 327 327 325 325 324 319 319 320 319 316 315 313 312 311 309 306 305 305 304 303 303 303 303 303
339 337 335 333 331 330 329 329 326 326 326 328 330 335 334 328 324 324 324 325 323 321 319 318 319 317 315 314 313 313 312 310 308 305 305 306 304 303 303 303 303 303 302
339 339 338 337 335 332 331 330 328 326 325 325 326 329 330 329 326 325 325 321 319 320 319 317 315 314 315 315 314 312 310 306 305 304 305 304 303 303 303 303 303 303 301
333 335 335 335 335 333 331 330 327 325 325 325 325 325 325 324 325 324 323 319 318 318 316 315 315 315 315 314 313 312 311 308 306 304 304 303 303 302 302 302 302 301 301
326 328 329 329 331 333 333 332 330 326 323 323 322 322 324 323 323 323 320 317 316 317 315 315 315 316 316 314 312 311 309 307 304 303 303 302 301 298 298 302 302 300 301
324 326 328 328 327 326 327 329 329 328 326 324 322 322 322 323 323 322 319 318 318 317 319 317 316 316 315 314 313 311 309 306 302 302 302 301 300 299 297 300 302 301 301
329 329 329 329 328 328 327 328 328 328 326 327 327 326 324 323 323 322 320 320 322 321 319 318 317 316 315 314 312 310 309 307 303 301 301 300 299 296 295 302 302 301 300
Wind_Speed
41 41 39 39 38 39 43 40 38 33 32 35 37 35 35 34 31 29 28 26 23 20 19 17 14 13 12 11 9 7 7 8 6 4 6 5 6 6 6 7 11 15 17
43 42 42 41 38 39 43 44 42 40 36 36 36 36 37 37 35 33 31 30 28 25 22 21 19 15 14 14 13 11 9 8 8 8 8 10 12 10 10 13 14 14 16
40 41 40 39 38 41 45 43 46 44 41 40 40 39 40 39 38 37 35 33 31 29 26 24 22 20 19 17 16 15 14 13 11 10 9 10 13 13 14 14 13 11 11
40 41 40 40 42 42 46 43 42 47 44 43 44 43 42 41 40 39 39 37 35 32 30 28 26 24 23 19 17 18 16 15 14 13 12 12 14 13 14 18 21 18 16
40 39 43 41 42 40 41 43 43 41 43 45 44 43 43 42 42 42 42 41 39 36 33 32 29 27 24 22 20 19 20 18 16 15 16 16 18 16 15 17 18 19 20
40 43 40 40 40 40 38 37 39 41 41 40 45 46 45 44 42 40 39 40 41 38 36 33 29 28 26 24 25 21 21 20 18 17 17 18 21 18 17 16 15 15 6
42 39 39 40 40 40 36 35 38 39 38 40 43 44 46 46 44 41 39 38 39 39 37 34 32 31 29 24 21 21 23 22 20 19 18 22 22 19 14 14 14 14 16
39 37 37 39 40 38 36 38 38 37 40 39 40 44 43 45 45 42 38 37 35 35 34 31 30 32 31 25 21 20 19 22 21 20 22 22 22 18 15 14 15 15 16
32 35 38 39 37 36 37 40 37 34 33 37 36 38 42 41 39 37 34 35 33 30 28 27 26 25 27 24 20 20 18 18 18 16 16 18 16 14 10 11 14 13 11
35 39 40 40 39 39 42 41 40 38 37 31 32 39 41 37 35 32 33 33 28 27 26 24 24 23 22 20 20 18 18 18 15 12 10 7 7 9 10 13 13 13 12
42 41 38 38 41 43 38 34 35 35 31 31 31 32 34 35 32 30 32 32 28 25 27 24 21 20 17 16 16 18 19 15 12 12 7 8 7 7 2 1 4 6 9
37 34 37 40 39 37 37 34 33 33 33 31 29 26 31 33 28 24 30 25 22 23 23 20 19 19 16 14 13 13 13 12 13 9 7 5 3 2 5 5 6 8 10
28 32 34 36 37 35 35 36 34 36 35 31 28 25 27 34 28 27 22 23 21 19 17 16 14 12 13 12 13 13 13 12 12 10 8 5 4 5 6 7 10 9 12
26 28 29 31 32 34 34 33 32 28 26 22 24 23 25 33 36 33 28 26 24 21 20 16 13 12 9 9 10 12 13 13 12 9 7 6 8 9 10 9 10 11 13
18 15 18 18 19 18 15 20 27 28 29 22 18 17 2 18 21 23 32 32 29 25 18 18 16 13 13 13 12 13 13 12 11 8 8 9 10 10 10 9 10 11 10
17 14 12 13 16 22 20 30 31 32 32 34 33 33 33 18 18 30 26 26 26 26 25 21 17 15 15 15 14 13 11 11 11 10 10 11 12 10 9 9 10 8 10
23 23 20 13 23 30 29 32 23 23 25 26 23 21 29 33 26 20 19 18 21 24 20 20 19 19 18 16 12 11 8 8 9 10 12 12 10 9 8 7 5 8 11
20 18 13 8 4 29 24 16 13 22 11 17 25 26 27 32 27 26 25 24 26 21 20 21 18 18 16 13 14 11 9 10 9 10 10 10 9 8 6 3 5 8 10
14 16 11 15 19 20 24 30 27 25 17 20 21 20 22 25 28 29 28 30 27 24 20 18 16 15 14 13 12 11 10 11 12 11 8 8 6 5 5 3 6 7 10
15 18 22 21 15 19 29 22 20 23 22 20 23 29 33 34 32 31 28 24 24 21 19 16 16 17 18 17 17 15 13 11 10 8 8 9 8 8 5 4 5 7 10
19 18 18 17 17 21 24 22 22 22 22 21 26 36 37 35 33 31 27 25 22 19 18 21 24 23 20 16 12 10 10 10 10 11 11 12 11 8 5 4 4 7 9
15 16 17 18 18 20 21 25 24 21 20 23 29 32 33 29 33 32 27 23 21 20 26 28 26 22 17 12 8 11 13 13 13 12 14 14 10 6 4 4 5 7 10
16 13 12 13 17 18 16 16 19 22 23 23 25 28 28 24 25 26 24 22 20 22 27 24 21 19 13 9 6 6 9 12 12 14 17 12 8 6 6 5 6 7 10
20 15 11 12 11 11 11 11 10 12 17 22 26 26 26 21 20 19 20 19 20 21 22 23 21 16 12 13 12 9 7 6 8 14 13 9 7 6 7 7 6 6 9
11 13 13 10 8 5 4 10 14 15 14 16 16 16 20 22 21 20 18 18 19 21 22 23 20 18 15 12 11 11 9 6 7 12 10 8 8 9 9 8 5 5 7
8 8 4 4 4 7 11 11 12 12 6 7 16 18 19 19 21 21 19 19 18 21 21 22 24 22 19 14 14 12 8 5 9 11 10 10 12 11 10 9 6 5 5
Wind_Direction
200 203 206 210 213 215 223 226 224 226 228 225 220 220 220 219 220 220 225 225 226 225 224 226 229 230 233 229 229 224 221 222 213 258 250 273 251 275 282 264 272 278 276
201 200 205 209 210 212 222 226 225 224 225 223 221 220 219 220 222 223 225 226 228 227 227 228 232 234 236 237 236 235 236 229 232 241 265 273 277 284 287 285 289 287 283
201 201 204 206 207 211 219 221 225 225 224 222 223 223 223 223 225 226 228 229 230 233 233 229 234 228 236 240 241 243 251 250 240 239 251 273 289 302 305 300 296 294 290
199 201 203 205 208 212 217 218 219 223 223 224 225 225 226 228 229 230 229 231 232 234 237 236 238 235 238 238 243 250 253 246 246 253 268 277 285 297 302 305 305 301 295
198 200 206 205 209 212 214 217 218 218 218 224 225 225 227 228 230 230 231 232 233 234 235 237 238 240 245 247 251 251 247 244 243 255 271 278 283 292 296 299 291 293 292
198 204 203 205 206 209 211 212 214 217 217 219 222 225 224 227 230 232 234 232 234 236 236 236 241 240 246 245 246 250 252 252 249 254 265 272 280 284 294 294 281 275 295
201 205 201 203 207 209 208 209 212 211 211 215 219 219 223 229 232 234 236 235 235 237 237 235 235 242 244 246 248 253 254 250 253 267 266 276 279 283 293 288 270 260 269
200 201 203 203 206 206 205 210 213 211 209 209 214 218 222 231 234 236 236 233 234 236 238 239 240 242 239 245 252 253 253 247 261 266 269 276 283 288 288 287 283 277 279
201 203 202 204 206 203 204 209 212 210 210 210 211 211 223 227 231 234 231 220 227 233 240 242 242 243 237 240 245 243 249 254 261 264 273 281 282 282 284 280 282 293 293
199 205 204 203 205 204 207 208 207 209 213 211 208 217 225 221 230 231 224 211 213 227 235 238 240 244 238 240 241 235 242 255 257 274 287 275 267 277 287 286 286 276 284
205 208 204 206 206 209 207 208 206 205 208 206 205 209 213 219 224 224 208 208 216 222 230 227 232 233 231 235 244 241 249 248 256 279 251 257 286 300 294 39 319 287 264
208 207 206 206 204 204 204 203 203 199 202 206 200 192 197 210 212 199 199 208 214 219 225 227 230 240 244 240 230 227 225 243 262 226 228 256 287 271 268 282 298 301 292
201 202 204 204 206 205 199 194 196 197 197 198 190 180 175 192 178 175 191 197 206 213 217 214 218 226 230 224 219 219 228 218 200 203 214 218 234 262 260 284 300 300 302
206 212 209 200 201 199 198 196 198 202 196 187 186 173 166 172 171 165 174 190 206 200 202 199 203 187 187 184 193 190 191 191 195 203 212 228 240 260 262 281 293 308 308
222 226 209 194 185 183 184 211 200 192 185 163 145 125 75 108 151 189 180 188 199 201 189 181 173 176 181 186 187 188 182 183 199 209 224 239 247 256 256 275 290 300 302
67 68 101 121 100 98 100 85 99 116 119 130 133 131 132 177 216 202 198 195 198 200 190 175 179 196 199 192 185 191 186 195 212 227 233 242 259 251 261 273 292 298 310
89 81 72 73 118 108 96 92 65 49 101 129 138 162 159 157 182 192 199 200 206 203 187 189 198 193 191 187 195 209 195 211 223 229 234 243 238 234 252 273 286 314 315
116 131 137 115 341 98 95 94 112 158 163 184 165 178 157 153 158 178 175 176 169 182 187 182 188 187 187 200 220 221 188 197 213 215 194 196 224 240 232 246 306 315 319
134 143 106 196 174 213 164 149 158 177 178 152 149 148 151 146 159 164 171 178 172 173 175 177 184 192 195 200 186 161 166 165 168 178 196 200 201 219 226 267 303 314 325
125 138 148 171 158 118 109 132 147 146 144 138 131 139 143 151 157 165 175 178 171 170 171 183 191 187 179 161 147 147 156 174 195 213 210 216 210 213 231 268 290 320 326
118 114 117 118 117 124 139 153 150 147 149 149 153 162 165 164 164 169 173 172 172 172 179 181 171 161 156 149 153 164 183 195 204 209 212 203 196 211 242 260 300 325 325
94 105 113 122 136 144 150 154 156 156 158 161 169 170 171 177 176 177 175 173 175 189 183 174 170 168 158 150 146 181 193 197 207 213 201 188 197 217 237 263 312 316 328
79 98 119 139 149 153 154 165 167 171 169 170 170 175 181 187 184 178 175 178 182 182 184 183 178 175 162 156 169 187 209 220 232 226 203 189 203 240 251 272 308 309 324
67 71 104 123 150 163 178 176 178 182 179 182 185 184 181 185 188 185 183 185 190 192 194 196 194 186 179 188 191 196 207 213 222 209 201 197 224 244 251 256 283 302 321
101 88 82 95 89 65 99 159 166 170 191 184 183 192 198 193 194 197 190 195 197 198 206 207 208 208 201 196 199 206 210 218 216 207 213 221 239 257 256 240 258 284 321
62 74 58 34 99 114 132 150 155 144 150 252 215 203 210 206 205 206 200 205 214 217 217 215 215 217 209 209 210 209 217 248 229 224 232 247 258 254 233 228 248 263 292